SCP
0 0 0 0 0 0 0 0 0 0 0 0 0 0 0 0 0 0 0 0 0 0 0 0 0 0 0 0 0 0 0 0 0 0 0 0 0 0 0 0 0 0 0
0 0 0 0 0 0 0 0 0 0 0 0 0 0 0 0 0 0 0 0 0 0 0 0 0 0 0 0 0 0 0 0 0 0 0 0 0 0 0 0 0 0 0
0 0 0 0 0 0 0 0 0 0 0 0 0 0 0 0 0 0 0 0 0 0 0 0 0 0 0 0 0 0 0 0 0 0 0 0 0 0 0 0 0 0 0
0 0 0 0 0 0 0 0 0 0 0 0 0 0 0 0 0 0 0 0 0 0 0 0 0 0 0 0 0 0 0 0 0 0 0 0 0 0 0 0 0 0 0
0 0 0 0 0 0 0 0 0 0 0 0 0 0 0 0 0 0 0 0 0 0 0 0 0 0 0 0 0 0 0 0 0 0 0 0 0 0 0 0 0 0 0
0 0 0 0 0 0 0 0 0 0 0 0 0 0 0 0 0 0 0 0 0 0 0 0 0 0 0 0 0 0 0 0 0 0 0 0 0 0 0 0 0 0 0
0 0 0 0 0 0 0 0 0 0 0 0 0 0 0 0 0 0 0 0 0 0 0 0 0 0 0 0 0 0 0 0 0 0 0 0 0 0 0 0 0 0 0
0 0 0 0 0 0 0 0 0 0 0 0 0 0 0 0 0 0 0 0 0 0 0 0 0 0 0 0 0 0 0 0 0 0 0 0 0 0 0 0 0 0 0
0 0 0 0 0 0 0 0 0 0 0 0 0 0 0 0 0 0 0 0 0 0 0 0 0 0 0 0 0 0 0 0 0 0 0 0 0 0 0 0 0 0 0
0 0 0 0 0 0 0 0 0 0 0 0 0 0 0 0 0 0 0 0 0 0 0 0 0 0 0 0 0 0 0 0 0 0 0 0 0 0 0 0 0 0 0
0 0 0 0 0 0 0 0 0 0 0 0 0 0 0 0 0 0 0 0 0 0 0 0 0 0 0 0 0 0 0 0 0 0 0 0 0 0 0 0 0 0 0
0 0 0 0 0 0 0 0 0 0 0 0 0 0 0 0 0 0 0 0 0 0 0 0 0 0 0 0 0 0 0 0 0 0 0 0 0 0 0 0 0 0 0
0 0 0 0 0 0 0 0 0 0 -0 0 0 0 0 0 0 0 0 0 0 0 0 0 0 0 0 0 0 0 0 0 0 0 0 0 0 0 0 0 0 0 0
0 0 0 0 0 0 0 0 0 0 0 0 0 0 0 0 0 0 0 0 0 0 0 0 0 0 0 0 0 0 0 0 0 0 0 0 0 0 0 0 0 0 0
0 0 0 0 0 0 0 0 0 0 0 0 0 0 0 0 0 0 0 0 0 0 0 0 0 0 0 0 0 0 0 0 0 0 0 0 0 0 0 0 0 0 0
0 0 0 0 0 0 0 0 0 0 0 0 0 0 0 0 0 0 0 0 0 0 0 0 0 0 0 0 0 0 0 0 0 0 0 0 0 0 0 0 0 0 0
0 0 0 0 0 0 0 0 0 0 0 0 0 0 0 0 0 0 0 0 0 0 0 0 0 0 0 0 0 0 0 0 0 0 0 0 0 0 0 0 0 0 0
0 0 0 0 0 0 0 0 0 0 0 0 0 0 0 0 0 0 0 0 0 0 0 0 0 0 0 0 0 0 0 0 0 0 0 0 0 0 0 0 0 0 0
0 0 0 0 0 0 0 0 0 0 0 0 0 0 0 0 0 0 0 0 0 0 0 0 0 0 0 0 0 0 0 0 0 0 0 0 0 0 0 0 0 0 0
0 0 0 0 0 0 0 0 0 0 0 0 0 0 0 0 0 0 0 0 0 0 0 0 0 0 0 0 0 0 0 0 0 0 0 0 0 0 0 0 0 0 0
0 0 0 0 0 0 0 0 0 0 0 0 0 0 0 0 0 0 0 0 0 0 0 0 0 0 0 0 0 0 0 0 0 0 0 0 0 0 0 0 0 0 0
0 0 0 0 0 0 0 0 0 0 0 0 0 0 0 0 0 0 0 0 0 0 0 0 0 0 0 0 0 0 0 0 0 0 0 0 0 0 0 0 0 0 0
0 0 0 0 0 0 0 0 0 0 0 0 0 0 0 0 0 0 0 0 0 0 0 0 0 0 0 0 0 0 0 0 0 0 0 0 0 0 0 0 0 0 0
0 0 0 0 0 0 0 0 0 0 0 0 0 0 0 0 0 0 0 0 0 0 0 0 0 0 0 0 0 0 0 0 0 0 0 0 0 0 0 0 0 0 0
0 0 0 0 0 0 0 0 0 0 0 0 0 0 0 0 0 0 0 0 0 0 0 0 0 0 0 0 0 0 0 0 0 0 0 0 0 0 0 0 0 0 0
0 0 0 0 0 0 0 0 0 0 0 0 0 0 0 0 0 0 0 0 0 0 0 0 0 0 0 0 0 0 0 0 0 0 0 0 0 0 0 0 0 0 0
Wind_Speed
1 0 6 7 8 7 7 7 7 7 7 6 6 6 6 6 6 6 5 6 6 6 6 6 6 6 7 7 7 7 7 8 9 9 9 10 10 10 10 10 9 6 11
3 2 7 7 8 8 7 7 7 6 6 6 5 5 5 5 5 4 4 5 5 5 5 5 5 6 6 7 7 7 7 8 8 8 8 8 9 9 10 10 9 6 11
4 3 5 7 7 8 8 7 6 6 6 5 5 4 4 4 3 3 4 3 4 4 4 4 5 5 6 6 6 7 7 7 7 7 7 3 5 8 9 9 9 10 10
5 4 4 7 7 8 8 8 7 6 5 5 4 4 3 3 2 2 3 3 3 4 4 4 4 5 5 5 6 6 6 7 7 7 4 3 3 8 9 9 9 9 10
5 3 4 7 7 7 7 7 7 6 5 4 4 3 3 2 2 1 1 2 2 3 3 4 4 5 6 6 6 6 6 6 6 5 3 3 3 7 9 9 9 9 10
4 3 4 7 7 7 7 6 6 6 5 5 4 3 2 2 1 1 0 1 2 2 3 4 4 5 6 6 7 6 6 6 4 2 3 3 3 8 9 10 10 10 10
4 3 4 7 7 7 7 6 6 6 6 5 5 4 3 2 2 1 1 1 1 2 3 3 4 5 6 7 7 7 6 6 3 2 3 3 5 9 10 10 11 11 10
5 3 3 6 7 7 7 6 7 6 6 6 6 5 4 4 3 2 2 1 1 2 2 3 4 4 5 6 7 7 7 6 4 4 3 4 8 10 10 11 11 11 11
5 4 3 3 4 6 7 7 7 7 7 7 7 7 6 5 5 4 4 3 2 1 2 2 3 4 5 5 6 6 6 7 4 3 5 4 8 11 11 12 12 12 12
5 4 3 3 3 3 2 6 7 7 8 8 8 8 7 6 5 5 5 4 4 3 2 2 3 4 4 5 5 5 5 5 4 4 3 5 10 11 12 12 13 13 13
4 3 3 3 3 2 2 4 5 6 7 7 6 8 7 3 3 3 5 5 5 4 4 3 3 3 4 5 5 5 4 2 4 3 4 8 12 13 13 13 13 14 14
2 2 2 3 3 3 3 3 2 2 3 3 3 3 3 3 3 4 5 6 6 6 5 5 4 3 3 2 3 3 2 3 3 3 4 10 13 14 14 14 14 14 14
2 2 2 2 2 3 2 2 1 2 2 2 3 3 3 2 2 2 2 3 3 4 3 3 3 2 2 2 2 2 3 3 3 3 5 11 14 15 15 15 15 15 15
3 2 1 2 2 2 2 2 1 1 1 2 2 2 2 2 2 2 1 2 2 2 2 2 2 2 3 3 3 3 4 3 3 3 4 10 13 15 16 16 15 16 16
4 3 2 2 2 2 2 1 2 1 1 2 2 2 2 1 2 2 1 1 2 2 2 2 2 3 3 3 3 4 4 5 5 5 4 9 12 15 17 17 17 17 16
4 4 3 3 2 2 1 1 0 1 1 1 2 2 1 1 1 1 2 1 1 1 1 2 3 3 3 3 4 4 4 5 5 5 5 7 11 13 16 18 18 17 17
5 5 4 3 2 2 1 0 0 1 1 1 1 2 2 1 1 1 2 2 2 2 2 1 2 2 3 3 4 5 4 5 5 6 6 5 6 11 14 16 18 18 17
5 5 4 3 3 2 1 0 0 1 1 1 2 2 2 2 1 1 1 2 2 2 2 2 1 2 3 3 4 4 4 4 6 6 6 6 5 6 9 14 16 18 18
6 5 4 3 3 2 1 1 1 1 1 2 2 2 2 3 2 2 2 2 2 2 2 3 2 2 3 4 4 4 4 4 5 6 6 7 7 6 6 9 13 15 17
5 5 4 3 3 2 1 0 1 1 2 2 2 3 3 3 3 2 2 3 2 2 2 2 3 3 3 3 5 5 4 5 5 5 6 6 6 7 7 7 7 9 14
4 4 4 3 2 2 1 1 1 2 2 3 3 4 4 4 4 3 3 3 3 3 4 3 2 3 3 2 2 4 5 5 5 5 4 5 6 6 6 7 6 5 6
5 5 4 4 3 3 2 2 2 2 3 3 3 4 5 5 4 4 4 3 4 3 4 3 2 2 2 2 1 3 4 4 3 4 4 5 6 5 6 7 7 7 6
5 6 5 5 4 4 3 1 1 1 2 2 3 3 4 5 5 5 5 4 4 4 4 4 4 4 3 3 2 2 2 4 4 3 5 5 5 4 5 6 7 8 8
6 5 5 5 4 4 3 3 3 3 4 5 4 4 5 5 6 6 6 5 5 4 5 5 5 4 4 4 4 3 4 4 4 4 4 4 5 6 6 6 7 7 8
5 4 4 4 4 4 4 4 4 4 5 4 4 5 5 5 6 6 6 6 6 5 6 6 6 5 4 5 4 4 4 4 4 5 7 5 4 5 5 6 5 6 7
3 3 4 4 4 4 4 4 5 6 6 6 6 5 5 5 5 7 7 6 6 6 6 7 7 7 6 6 6 5 5 5 4 4 6 6 6 5 5 5 5 5 6
Wind_Direction
270 48 80 78 76 82 83 88 88 87 88 90 94 100 103 109 112 117 120 124 127 130 132 132 134 135 136 132 131 133 131 130 129 128 126 126 125 125 123 117 113 106 112
160 114 86 80 77 76 79 83 87 89 88 88 92 97 103 110 117 123 132 138 141 142 145 143 141 136 139 139 138 138 137 136 133 131 128 127 131 132 128 125 123 121 120
125 109 95 82 79 78 74 74 77 83 84 84 87 94 101 112 124 134 141 150 154 155 156 154 145 143 142 141 144 146 146 145 143 139 135 129 139 140 135 134 133 129 127
120 109 98 85 81 78 75 72 69 69 73 78 80 86 95 106 123 147 159 165 169 171 171 168 157 159 160 158 156 157 157 156 155 152 146 149 154 150 146 145 143 139 136
107 105 99 88 82 77 73 70 65 62 62 64 68 73 84 94 108 135 177 184 187 194 191 184 173 173 177 175 171 169 164 160 160 160 158 165 168 164 160 156 152 146 145
104 100 97 90 81 73 68 67 64 58 52 52 56 59 65 68 78 79 187 203 209 212 206 196 191 185 188 186 182 183 177 168 155 160 171 176 178 175 170 161 158 154 153
114 99 95 89 80 72 65 62 58 54 47 40 38 41 43 37 26 22 17 273 243 227 214 212 209 201 197 197 194 193 192 179 164 171 182 188 188 182 177 170 168 164 161
120 102 86 82 75 69 63 59 54 48 43 39 32 29 30 31 28 26 13 359 294 255 242 232 224 217 210 206 205 203 198 185 180 191 193 195 191 189 186 179 174 172 172
97 91 72 65 65 62 59 55 52 46 40 36 33 26 25 26 22 21 18 11 359 311 276 253 239 230 222 217 213 210 205 198 186 197 202 203 197 196 192 186 183 181 178
76 76 70 55 49 45 47 49 45 41 37 36 32 28 24 20 17 16 12 11 5 343 319 293 270 248 236 228 221 215 206 197 199 201 204 207 204 202 199 195 192 189 184
67 61 72 62 49 35 35 37 35 36 31 30 28 27 25 7 0 8 3 5 2 354 337 319 301 292 268 243 234 218 203 201 201 211 209 211 210 210 208 203 199 196 192
99 82 77 74 57 41 31 29 16 28 23 24 20 20 16 10 3 16 2 5 360 355 346 333 323 307 296 270 252 229 211 205 209 217 220 218 218 218 215 210 205 203 200
152 121 88 96 81 65 36 27 18 10 12 15 20 21 18 15 5 11 5 355 351 354 346 333 326 318 297 273 261 245 224 211 218 225 225 223 223 224 222 216 208 208 206
145 141 113 97 86 74 61 31 25 15 5 3 0 15 28 14 1 353 357 348 354 345 338 337 322 316 299 279 260 251 240 228 224 226 232 228 228 229 229 225 216 213 211
159 166 161 131 106 86 70 30 26 5 360 347 355 3 25 17 351 337 333 339 340 342 339 331 321 311 300 284 273 263 253 242 237 230 234 232 232 232 233 231 225 220 217
175 176 172 153 139 110 87 57 0 337 334 345 341 333 360 12 347 338 321 313 308 310 310 305 306 294 284 283 278 270 263 252 244 240 237 235 234 235 237 236 232 226 221
182 176 174 167 150 130 117 58 5 313 327 322 314 311 311 318 322 324 318 305 291 294 300 306 309 310 307 300 287 277 269 260 254 245 241 235 232 236 239 241 238 231 226
174 175 182 169 155 156 153 192 284 298 297 287 295 301 299 293 289 291 294 292 288 293 297 294 293 304 296 291 286 279 275 267 259 250 243 238 232 233 235 239 240 236 231
171 171 172 169 169 176 182 199 255 278 273 264 268 276 282 279 267 253 256 267 280 280 280 286 298 293 290 292 284 279 275 270 262 257 247 240 235 232 232 236 238 238 234
164 163 165 171 179 176 168 322 314 298 279 268 257 254 261 266 260 252 254 257 260 264 266 269 279 287 280 281 291 289 278 272 263 251 246 243 239 236 233 235 233 236 235
158 161 170 174 188 172 179 219 255 267 269 270 257 249 249 254 254 245 254 253 246 242 244 250 266 277 287 295 302 302 292 269 258 253 246 243 243 242 237 232 228 226 233
175 177 181 188 195 198 204 215 220 236 250 251 257 256 247 247 250 251 242 244 245 246 249 245 245 248 272 284 285 309 304 306 280 261 252 246 246 243 241 239 232 228 226
187 191 194 200 205 213 214 218 278 296 296 281 271 263 254 250 249 245 242 240 242 236 237 239 233 230 255 266 230 220 260 269 304 275 254 252 250 244 243 241 236 233 229
202 200 199 206 214 222 211 208 226 242 255 255 254 257 263 254 252 245 242 239 237 237 238 238 237 228 229 254 257 236 240 250 271 290 282 260 256 253 247 246 239 236 233
197 197 206 212 223 227 221 218 227 244 249 259 263 265 264 257 250 245 240 237 235 237 239 238 238 233 225 237 245 253 258 254 248 260 278 279 272 256 248 240 234 236 236
206 208 211 219 237 236 233 233 230 242 253 263 267 263 263 260 255 247 243 238 236 237 239 240 235 232 233 238 242 243 243 241 241 247 261 268 272 272 257 242 233 231 232